CZ-3B DEB, 40815

Orbit data source: Space-Track

CZ-3B DEB, 40815 is space debris in HEO originally from a launch on Sat, 04 Sep 2010 UTC launched from the Xichang Space Center, China (XSC). Debris objects in space refer to the collection of defunct objects orbiting the Earth. Examples of debris include non-operational satellites, rocket bodies, and fragments generated from explosions, collisions, or faulty payload assembly.

Loading next visibility...
Identifier
40815, 2010-042Y
Orbit
HEO
Last TLE update
3 days ago
Origin
Manufacturer
CALT
Mission
Spacecraft
Bus & Motor
Unknown
Mass
Unknown
Launch date (UTC)
2010-09-04 (15 years ago)
Launch vehicle
Unknown
Launch site
Xichang Space Center, China (XSC)
Object type
Payload
Rocket body
Debris
Shape & HBR
Unknown
Radar Cross Section
Medium (>0.1 m² and <1 m²)

Expand to show TLE details & history

TLE from 3 days ago
0 CZ-3B DEB
1 40815U 10042Y   25179.24609822 -.00000072  00000-0 -36139-3 0  9998
2 40815  25.5785 229.6504 7402625  55.5719 353.5819  1.91035456 80149
Epoch: 2025-06-28T05:54Z
TLE epoch observation values (Epoch: 2025-06-28T05:54:22.886Z)
Latitude
-0.00005°
Longitude
-135.45028°
Altitude
2,321.068 km
Speed
8.781 km/s
True Right ascension
15h 18m 55s
True Declination
0° 00' 00"
Sunlit
Object was in daylight at epoch
Visualization orbit readout
Latitude
-18.53512°
Longitude
88.17402°
Altitude
39,613.396 km
Speed
1.675 km/s
Apparent Right ascension
05h 49m 45s
Apparent Declination
-22° 23' 46"
Sunlit
Object is in daylight
Visualization observer readout
Local Sidereal Time
13:23:33
Azimuth
266.212° W
Elevation
-31.779°
Doppler factor
1
Orbital elements
Apogee altitude
41,374.913 km
Perigee altitude
749.097 km
Semi-major axis
27,440.142 km
Eccentricity
0.74026
Inclination
25.5785°
RAAN
229.6504°
Arg. of periapsis
55.5719°
True anomaly
Unknown
Mean anomaly
353.5819°
Eccentric anomaly
Unknown
Mean motion
0.47749 °/min
Orbital period
753.94 mins
BSTAR
-0.00036139
Loading maneuver chart data...
Loading SW <> Apogee altitude chart data...
Loading historical data...
Loading historical data...
Loading historical data...
Loading historical data...
Loading historical data...
Loading historical data...
Loading historical data...

CZ-3B DEB Visibility forecast

Observer location: undefined°, undefined°

Span
Click to sort rows by Start time (UTC) header in descending order
Start Az.
Max El. time (UTC)
Max El. Az.
Max El.
End time (UTC)
End Az.
18 mins2025-07-01 09:34:31.793Z223.398° SW2025-07-01 09:38:31.793Z167.36° S26.4°2025-07-01 09:52:31.793Z107.049° ESE
73 mins2025-07-01 18:01:31.793Z147.598° SSE2025-07-01 18:39:31.793Z151.246° SSE10.338°2025-07-01 19:14:31.793Z153.744° SSE
|